Temp
13 13 14 13 13 13 13 12 12 13 13 13 13 12 11 10 10 10 10 10 10 10 10 9 9 9 9 8 8 8 8 8 8 9 9 9 9 10 9 9 9 9 9 9 8 8 8 7 7 7 8 8 8 7 7 7 6 6 6 6 5 5 5 5 4 4 4 4 4
13 13 13 13 13 13 12 12 12 12 12 12 12 11 11 10 10 10 9 9 9 9 9 9 9 9 8 8 8 8 8 8 8 9 9 9 9 9 9 9 9 9 9 9 8 8 7 7 7 7 7 7 7 7 7 6 6 6 6 5 5 5 5 4 4 4 4 3 3
13 13 13 13 13 12 12 12 12 12 12 12 11 11 10 10 9 9 9 9 9 8 8 8 8 8 8 8 8 8 8 8 9 9 9 9 9 9 9 9 9 9 8 8 8 7 7 7 7 7 7 7 7 7 6 6 6 5 5 5 5 5 4 4 4 4 3 3 3
13 13 13 13 12 12 12 12 12 12 12 11 11 10 10 9 9 9 9 8 8 8 8 8 8 8 8 8 8 8 8 8 9 9 9 9 9 9 9 9 8 8 8 8 7 7 7 7 7 7 7 7 7 6 6 6 5 5 5 5 5 4 4 4 4 3 3 3 3
13 13 13 12 12 12 12 12 12 12 12 11 11 10 9 9 8 8 8 8 7 8 8 9 9 9 8 8 8 8 8 9 9 9 9 9 9 9 9 8 8 8 8 7 7 7 7 7 7 7 7 7 6 6 6 5 5 5 5 4 4 4 4 4 3 3 3 3 3
13 12 12 12 11 11 12 12 12 12 11 11 10 10 9 8 8 8 7 7 7 8 8 8 9 9 8 7 7 8 8 9 9 9 9 9 9 9 8 8 8 8 7 7 7 6 6 7 7 7 6 6 6 6 5 5 5 5 4 4 4 4 4 3 3 3 3 3 3
12 12 11 11 11 11 11 11 11 11 11 10 10 10 9 8 8 7 7 7 8 8 8 8 8 8 8 7 7 8 8 8 9 9 9 9 8 8 8 8 8 7 7 6 6 6 6 6 6 6 6 6 6 5 5 4 4 4 4 4 4 4 3 3 3 3 3 3 2
12 11 11 11 11 11 11 10 10 10 10 10 10 10 9 8 8 8 7 8 8 8 8 8 8 8 7 7 7 8 8 8 9 9 9 8 8 8 8 7 7 7 6 6 6 6 6 6 6 6 6 5 5 5 4 4 4 4 4 4 3 3 3 3 3 2 2 2 2
10 10 10 10 10 10 10 10 10 10 10 10 10 9 9 8 8 8 8 8 8 8 9 8 8 7 7 7 7 7 8 8 9 9 8 8 8 8 7 7 7 6 6 6 6 6 6 6 6 6 5 5 5 5 4 4 4 4 4 3 3 3 3 2 2 2 2 2 2
10 10 10 10 10 10 9 9 9 10 10 10 9 8 8 8 8 8 8 8 8 9 9 8 7 7 7 7 7 7 8 8 9 8 8 8 8 7 7 7 6 6 6 6 6 6 6 6 6 5 5 5 4 4 4 4 4 4 3 3 3 3 2 2 2 2 2 2 2
10 9 9 9 9 9 9 9 9 9 9 9 8 8 7 7 7 8 8 8 8 8 8 8 7 7 7 7 7 7 8 8 8 8 8 8 7 7 7 6 6 6 6 5 5 5 6 5 5 5 5 4 4 4 4 4 4 3 3 3 3 2 2 2 2 2 2 1 1
9 9 9 9 9 9 9 9 9 9 8 8 7 7 7 7 7 7 8 8 8 8 8 7 7 7 7 7 7 8 8 8 8 8 8 7 7 7 6 6 6 5 5 5 5 5 5 5 5 5 4 4 4 4 4 4 3 3 3 3 2 2 2 2 2 1 1 1 1
9 9 9 9 9 9 9 9 8 8 7 7 7 7 7 7 7 7 7 8 8 7 7 7 6 7 7 7 8 8 8 8 8 8 7 7 7 6 6 6 5 5 5 5 5 5 5 5 5 4 4 4 4 3 3 3 3 3 3 2 2 2 2 2 1 1 1 0 0
9 9 9 9 9 9 9 8 8 7 7 6 6 7 7 7 7 7 7 7 7 7 6 6 6 7 7 7 8 8 8 8 8 7 7 7 6 6 6 5 5 5 5 5 5 5 5 5 4 4 4 4 3 3 3 3 3 2 2 2 2 2 1 1 1 1 0 0 -0
9 9 8 8 8 8 8 8 7 7 6 6 6 7 7 7 7 7 7 6 6 6 6 6 6 7 7 7 8 8 8 8 7 7 7 6 6 6 5 5 5 5 5 5 5 5 4 4 4 4 3 3 3 3 3 3 2 2 2 2 2 1 1 1 1 1 0 0 -0
8 8 8 8 8 8 7 7 6 6 6 6 6 6 6 6 6 6 6 6 6 6 6 6 7 7 7 7 7 7 7 7 7 7 6 6 6 5 5 5 5 5 5 5 4 4 4 4 4 3 3 3 3 3 2 2 2 2 2 2 1 1 1 1 1 0 0 -0 -0
8 8 8 8 8 7 7 6 6 6 6 6 6 6 6 6 6 6 6 6 6 5 6 6 7 7 7 7 7 7 7 7 7 6 6 6 5 5 5 5 5 5 4 4 4 4 4 3 3 3 3 3 3 2 2 2 2 2 2 1 1 1 1 1 0 0 -0 -1 -1
8 8 7 7 7 7 6 6 6 6 6 6 6 5 5 5 5 5 5 5 5 6 6 7 7 7 7 7 7 7 7 6 6 6 6 5 5 5 5 5 4 4 4 4 4 4 4 3 3 3 3 2 2 2 2 2 2 2 2 1 1 1 0 0 -0 -0 -1 -1 -1
7 7 7 6 6 6 6 6 6 6 5 5 5 5 5 5 5 5 5 5 5 6 7 7 7 7 7 7 7 7 6 6 6 6 5 5 5 5 4 4 4 4 4 4 4 3 3 3 3 3 2 2 2 2 2 2 2 1 1 1 1 0 0 -0 -0 -1 -1 -1 -2
7 6 6 6 5 5 5 5 5 5 5 5 5 5 5 5 5 5 5 5 5 6 7 7 7 7 7 7 7 6 6 6 5 5 5 5 4 4 4 4 4 4 4 4 3 3 3 3 2 2 2 2 2 2 2 1 1 1 1 1 0 -0 -0 -1 -1 -1 -1 -2 -2
6 6 5 5 5 5 5 5 5 4 4 4 4 4 5 5 5 5 5 5 6 6 7 7 7 7 7 6 6 6 6 5 5 5 5 4 4 4 4 4 4 4 3 3 3 3 2 2 2 2 2 2 1 1 1 1 1 1 0 0 -0 -0 -1 -1 -1 -2 -2 -2 -2
5 5 5 4 4 4 4 4 4 4 4 4 4 4 5 4 4 5 5 6 6 6 6 6 6 6 6 6 6 6 5 5 5 4 4 4 4 4 4 4 4 3 3 3 3 2 2 2 2 2 1 1 1 1 1 1 1 0 0 -0 -0 -1 -1 -1 -1 -2 -2 -2 -2
4 4 4 4 4 4 4 4 4 4 4 4 4 4 4 4 5 5 6 6 6 6 6 6 6 6 6 6 5 5 5 5 4 4 4 4 4 4 3 3 3 3 3 2 2 2 2 2 1 1 1 1 1 1 1 0 0 0 -0 -0 -0 -1 -1 -1 -1 -2 -2 -2 -3
4 4 3 3 3 3 3 3 3 4 4 3 4 4 4 5 5 6 6 6 6 6 6 6 6 6 5 5 5 5 5 4 4 4 4 4 4 3 3 3 3 3 2 2 2 2 1 1 1 1 1 1 1 1 0 0 0 -0 -0 -0 -0 -1 -1 -1 -1 -1 -2 -2 -3
4 4 3 3 3 3 3 3 4 4 4 3 3 4 5 5 6 6 6 6 6 6 6 6 5 5 5 5 5 5 4 4 4 4 4 3 3 3 3 3 2 2 2 2 1 1 1 1 1 1 1 1 1 0 0 0 -0 -0 -0 -0 -0 -1 -1 -1 -1 -1 -2 -2 -3
4 4 4 4 3 3 4 4 4 4 4 4 4 4 5 5 6 6 6 6 6 5 5 5 5 5 5 5 5 4 4 4 4 3 3 3 3 3 3 2 2 2 1 1 1 1 0 0 0 0 1 1 0 0 0 0 -0 -0 -0 -1 -1 -1 -1 -1 -1 -2 -2 -3 -4
4 4 4 4 4 4 4 4 4 4 4 4 4 5 5 5 5 6 6 5 5 5 5 5 5 5 5 5 4 4 4 4 3 3 3 3 3 3 2 2 2 1 1 1 0 0 -0 0 0 0 0 0 0 0 0 -0 -0 -0 -1 -1 -1 -1 -1 -1 -2 -2 -3 -4 -4
4 4 4 4 4 4 4 4 4 4 4 4 4 5 5 5 5 5 5 5 5 5 5 5 5 5 5 4 4 4 4 3 3 3 3 3 2 2 2 2 1 1 0 0 -0 -0 -0 0 0 0 0 0 -0 -0 -0 -0 -0 -1 -1 -1 -1 -1 -1 -2 -2 -3 -4 -4 -4
3 3 4 4 4 4 4 4 4 4 4 4 5 5 5 5 5 5 5 5 5 5 5 5 5 4 4 4 4 3 3 3 3 3 2 2 2 2 2 1 1 0 -0 -0 -1 -0 -0 0 0 -0 -0 -0 -0 -0 -0 -1 -1 -1 -1 -1 -1 -1 -2 -2 -3 -4 -4 -4 -5
3 3 4 4 4 4 3 3 4 4 4 4 4 5 5 5 5 5 5 5 5 5 5 4 4 4 4 4 3 3 3 3 3 2 2 2 1 1 1 1 0 -0 -1 -1 -0 -0 -0 -0 -0 -0 -0 -0 -0 -1 -1 -1 -1 -1 -1 -1 -1 -1 -2 -3 -3 -4 -5 -5 -5
3 3 3 3 3 3 3 3 3 4 4 4 4 5 5 5 5 5 5 5 5 4 4 4 4 4 4 3 3 3 3 2 2 2 2 1 1 1 0 0 -0 -0 -1 -0 -0 -0 -0 -0 -0 -0 -0 -1 -1 -1 -1 -1 -1 -1 -1 -1 -1 -2 -2 -3 -4 -5 -5 -5 -5
3 3 3 3 3 3 3 3 3 4 4 4 5 5 5 5 5 4 4 4 4 4 4 4 4 4 3 3 3 3 2 2 2 2 1 1 1 0 -0 -0 -0 -0 -0 -0 -0 -0 -0 -0 -1 -1 -1 -1 -1 -1 -1 -1 -1 -1 -1 -1 -2 -2 -3 -4 -5 -5 -5 -6 -6
2 2 3 3 3 3 3 3 4 4 4 4 4 4 4 4 4 4 4 4 4 4 4 4 4 3 3 3 3 2 2 2 1 1 1 1 0 -0 -1 -1 -1 -0 -0 -0 -0 -0 -1 -1 -1 -1 -1 -1 -1 -1 -1 -1 -1 -1 -1 -2 -2 -3 -4 -4 -5 -5 -6 -6 -6
2 2 2 2 3 3 3 4 4 4 4 4 4 4 4 4 4 4 4 4 4 4 4 3 3 3 3 2 2 2 2 1 1 1 1 0 -1 -1 -1 -1 -0 -0 -0 -0 -0 -1 -1 -1 -1 -1 -1 -1 -1 -1 -1 -1 -1 -1 -2 -2 -3 -3 -4 -5 -5 -6 -6 -6 -6
2 2 2 2 3 3 4 4 4 4 4 4 4 4 4 4 4 4 4 4 4 3 3 3 3 2 2 2 2 2 2 1 1 1 -0 -1 -1 -1 -1 -1 -1 -0 -0 -0 -1 -1 -1 -1 -1 -1 -1 -1 -1 -1 -1 -1 -1 -2 -2 -2 -3 -4 -4 -5 -6 -6 -6 -6 -6
1 1 2 2 3 4 4 4 4 4 4 4 4 4 4 4 4 4 4 3 3 3 3 3 2 2 2 2 2 2 1 1 0 -0 -1 -1 -1 -1 -1 -1 -1 -1 -1 -1 -1 -1 -1 -1 -1 -1 -1 -1 -1 -1 -1 -2 -2 -2 -2 -3 -3 -4 -5 -5 -6 -6 -6 -6 -6
1 1 2 3 3 4 4 3 3 3 4 4 4 4 4 4 4 3 3 3 3 3 2 2 2 2 2 2 1 1 1 0 -0 -1 -1 -1 -1 -1 -1 -1 -1 -1 -1 -1 -1 -1 -1 -1 -1 -1 -1 -1 -1 -1 -2 -2 -2 -2 -3 -3 -4 -5 -5 -6 -6 -7 -7 -7 -7
1 2 3 3 3 3 3 3 3 4 4 4 4 4 3 3 3 3 3 2 2 2 2 2 2 2 1 1 1 0 -0 -1 -1 -1 -1 -1 -1 -1 -1 -1 -1 -1 -1 -1 -1 -1 -1 -1 -1 -1 -1 -1 -2 -2 -2 -2 -3 -3 -3 -4 -5 -5 -6 -6 -7 -7 -7 -7 -7
2 3 3 3 3 3 3 3 3 4 4 4 3 3 3 3 3 3 2 2 2 2 2 2 1 1 1 0 -0 -1 -1 -1 -1 -1 -1 -1 -1 -1 -1 -1 -1 -1 -1 -1 -2 -2 -2 -2 -2 -2 -2 -2 -2 -2 -2 -3 -3 -3 -4 -5 -5 -6 -6 -7 -7 -7 -7 -7 -7
3 3 3 3 3 3 3 3 4 3 3 3 3 3 3 3 3 2 2 2 2 2 1 1 1 0 0 -0 -1 -1 -1 -1 -1 -1 -1 -1 -1 -1 -1 -1 -1 -1 -1 -1 -2 -2 -2 -2 -2 -2 -2 -2 -2 -3 -3 -3 -4 -4 -5 -5 -6 -6 -7 -6 -6 -7 -7 -7 -7
3 3 3 3 3 3 3 3 3 3 3 3 3 3 3 2 2 2 2 2 1 1 1 1 0 -0 -0 -1 -1 -1 -1 -1 -1 -1 -1 -1 -1 -1 -1 -1 -1 -1 -1 -1 -2 -2 -2 -2 -2 -3 -3 -3 -3 -3 -4 -4 -4 -5 -5 -6 -6 -7 -7 -7 -7 -7 -7 -7 -7
Height
1440 1442 1443 1445 1446 1447 1448 1450 1452 1453 1454 1455 1456 1457 1458 1460 1462 1464 1466 1468 1469 1471 1472 1473 1475 1477 1479 1482 1484 1486 1487 1488 1490 1492 1493 1494 1494 1495 1495 1496 1496 1497 1497 1498 1498 1498 1499 1499 1499 1499 1500 1500 1500 1499 1499 1499 1498 1498 1498 1498 1498 1498 1497 1497 1497 1496 1496 1495 1495
1439 1441 1442 1443 1445 1446 1447 1449 1450 1452 1453 1453 1455 1456 1458 1459 1461 1463 1465 1467 1468 1469 1471 1472 1474 1476 1478 1481 1483 1484 1486 1488 1489 1491 1492 1493 1493 1494 1494 1495 1495 1496 1496 1497 1497 1498 1498 1498 1498 1498 1499 1499 1499 1498 1498 1498 1498 1497 1497 1497 1497 1497 1496 1496 1496 1495 1495 1494 1494
1438 1439 1441 1442 1443 1444 1446 1447 1448 1450 1451 1452 1454 1455 1457 1459 1461 1462 1464 1465 1467 1468 1469 1471 1473 1475 1478 1479 1481 1483 1485 1487 1489 1490 1491 1492 1492 1493 1493 1494 1494 1495 1495 1496 1496 1497 1497 1497 1498 1498 1498 1498 1498 1498 1498 1497 1497 1497 1496 1496 1496 1496 1496 1495 1495 1494 1494 1494 1493
1436 1438 1439 1440 1441 1443 1444 1446 1447 1448 1449 1451 1453 1455 1457 1458 1459 1461 1463 1464 1466 1467 1468 1470 1472 1474 1476 1478 1479 1482 1484 1487 1488 1489 1490 1491 1491 1492 1493 1493 1493 1494 1494 1495 1495 1496 1496 1496 1497 1497 1497 1497 1497 1497 1497 1496 1496 1496 1495 1495 1495 1495 1495 1494 1494 1493 1493 1493 1493
1435 1436 1438 1439 1441 1442 1444 1445 1446 1447 1448 1450 1452 1454 1456 1457 1458 1460 1462 1463 1464 1466 1468 1469 1471 1473 1474 1476 1479 1482 1484 1485 1487 1488 1489 1489 1490 1491 1492 1492 1493 1493 1493 1494 1494 1494 1495 1495 1496 1496 1496 1496 1496 1496 1495 1495 1495 1495 1494 1494 1494 1494 1494 1493 1493 1493 1492 1492 1491
1433 1435 1437 1438 1440 1442 1443 1444 1445 1447 1448 1449 1451 1453 1454 1456 1457 1458 1460 1461 1463 1465 1467 1468 1470 1472 1473 1475 1478 1481 1483 1484 1486 1487 1488 1488 1489 1490 1491 1491 1492 1492 1493 1493 1493 1493 1494 1494 1494 1495 1495 1495 1494 1494 1494 1494 1494 1493 1493 1493 1493 1493 1493 1493 1492 1492 1491 1491 1490
1432 1434 1435 1437 1439 1441 1442 1443 1445 1446 1447 1449 1450 1452 1453 1454 1456 1457 1459 1460 1462 1464 1466 1468 1469 1470 1472 1475 1478 1480 1482 1483 1484 1486 1487 1488 1488 1489 1490 1490 1491 1491 1492 1492 1492 1493 1493 1493 1493 1493 1493 1493 1493 1493 1493 1493 1493 1493 1492 1492 1492 1492 1492 1491 1491 1490 1490 1489 1489
1432 1433 1435 1436 1438 1440 1441 1443 1444 1445 1447 1448 1450 1451 1452 1453 1455 1456 1458 1459 1461 1463 1465 1467 1468 1469 1471 1473 1476 1479 1481 1482 1483 1484 1486 1487 1488 1488 1489 1489 1490 1490 1491 1491 1491 1492 1492 1492 1493 1493 1493 1493 1493 1493 1492 1492 1492 1492 1491 1491 1491 1490 1490 1490 1489 1489 1489 1488 1488
1431 1433 1434 1436 1438 1439 1440 1442 1443 1444 1446 1448 1449 1450 1452 1453 1454 1455 1457 1458 1460 1462 1464 1466 1467 1469 1471 1473 1476 1478 1480 1481 1482 1483 1485 1486 1487 1487 1488 1488 1489 1490 1490 1490 1491 1491 1491 1491 1492 1492 1492 1492 1492 1492 1491 1491 1491 1491 1490 1490 1490 1489 1489 1488 1488 1488 1487 1487 1487
1430 1432 1433 1435 1437 1438 1440 1441 1443 1444 1446 1447 1448 1450 1451 1453 1454 1455 1456 1458 1460 1462 1463 1465 1466 1468 1470 1473 1475 1477 1479 1480 1482 1483 1484 1485 1486 1487 1487 1488 1488 1489 1489 1490 1490 1490 1490 1490 1491 1491 1491 1491 1491 1490 1490 1490 1490 1490 1489 1489 1489 1488 1488 1487 1487 1487 1486 1486 1485
1429 1431 1432 1434 1436 1437 1439 1441 1442 1444 1445 1446 1448 1449 1451 1452 1453 1454 1456 1457 1459 1461 1463 1464 1466 1468 1470 1472 1475 1477 1478 1479 1481 1482 1483 1484 1485 1486 1486 1487 1488 1488 1488 1489 1489 1489 1489 1490 1490 1490 1490 1489 1489 1489 1489 1489 1489 1488 1488 1488 1488 1487 1487 1486 1486 1485 1485 1484 1484
1429 1431 1432 1433 1435 1437 1438 1440 1442 1443 1444 1446 1447 1448 1450 1451 1452 1454 1455 1457 1459 1460 1462 1464 1466 1468 1470 1472 1474 1476 1478 1479 1480 1481 1482 1483 1484 1485 1485 1486 1487 1487 1488 1488 1488 1488 1488 1489 1489 1489 1488 1488 1488 1488 1488 1488 1488 1487 1487 1487 1486 1486 1485 1485 1485 1484 1484 1483 1483
1429 1430 1432 1433 1435 1436 1438 1439 1441 1442 1443 1445 1446 1448 1449 1450 1452 1453 1455 1457 1458 1460 1462 1464 1466 1468 1470 1472 1473 1475 1477 1478 1479 1480 1482 1483 1483 1484 1485 1486 1486 1487 1487 1487 1488 1488 1488 1488 1488 1488 1488 1487 1487 1487 1487 1486 1486 1486 1486 1485 1485 1484 1484 1484 1484 1483 1483 1482 1482
1429 1430 1431 1433 1434 1436 1437 1438 1440 1441 1443 1444 1445 1447 1448 1450 1452 1453 1454 1456 1458 1460 1462 1463 1466 1468 1470 1472 1473 1475 1476 1477 1478 1480 1481 1482 1483 1483 1484 1485 1486 1486 1486 1487 1487 1487 1487 1487 1487 1487 1487 1486 1486 1486 1485 1485 1485 1485 1484 1484 1484 1483 1483 1483 1483 1482 1482 1481 1481
1429 1430 1431 1433 1434 1435 1436 1438 1439 1440 1442 1443 1445 1446 1448 1450 1451 1453 1454 1456 1458 1459 1461 1463 1466 1468 1470 1472 1473 1474 1476 1477 1478 1479 1480 1481 1482 1483 1484 1484 1485 1485 1486 1486 1486 1486 1486 1486 1486 1486 1486 1485 1485 1485 1484 1484 1484 1484 1483 1483 1483 1483 1482 1482 1482 1481 1481 1480 1480
1428 1430 1431 1432 1433 1434 1435 1437 1438 1439 1441 1443 1444 1446 1448 1449 1450 1452 1453 1455 1458 1459 1462 1464 1466 1468 1470 1471 1473 1474 1475 1477 1478 1479 1480 1481 1482 1482 1483 1484 1484 1484 1485 1485 1485 1485 1485 1485 1485 1485 1485 1484 1484 1484 1483 1483 1483 1483 1483 1482 1482 1482 1481 1481 1480 1480 1479 1479 1478
1428 1429 1430 1431 1432 1433 1434 1436 1437 1439 1441 1443 1444 1446 1447 1448 1449 1451 1453 1455 1457 1459 1462 1464 1466 1467 1469 1471 1473 1474 1475 1476 1477 1478 1479 1480 1481 1482 1482 1483 1483 1484 1484 1484 1484 1484 1484 1484 1484 1484 1484 1483 1483 1483 1483 1483 1482 1482 1482 1481 1481 1480 1480 1479 1479 1479 1478 1478 1477
1428 1429 1430 1430 1431 1433 1434 1435 1437 1439 1441 1442 1444 1445 1446 1448 1449 1451 1453 1455 1457 1459 1462 1463 1466 1468 1469 1470 1472 1473 1475 1476 1477 1478 1479 1480 1480 1481 1482 1482 1483 1483 1483 1483 1483 1483 1483 1483 1483 1483 1483 1483 1482 1482 1482 1482 1481 1481 1480 1480 1480 1479 1479 1478 1478 1478 1477 1477 1476
1428 1428 1429 1430 1431 1432 1434 1436 1437 1439 1441 1442 1443 1445 1446 1448 1449 1451 1453 1456 1458 1460 1462 1464 1466 1468 1469 1470 1472 1473 1474 1476 1477 1478 1478 1479 1480 1481 1481 1481 1482 1482 1482 1482 1482 1482 1482 1482 1482 1482 1482 1482 1481 1481 1480 1480 1480 1479 1479 1479 1478 1478 1478 1477 1477 1476 1476 1475 1475
1427 1428 1428 1429 1431 1432 1434 1436 1438 1439 1440 1442 1443 1444 1446 1448 1450 1452 1454 1456 1459 1462 1463 1464 1466 1467 1469 1470 1472 1473 1474 1475 1476 1477 1478 1479 1479 1480 1480 1481 1481 1481 1481 1481 1481 1481 1481 1481 1481 1481 1481 1480 1480 1480 1479 1479 1478 1478 1478 1477 1477 1477 1476 1476 1475 1475 1474 1474 1473
1427 1427 1428 1429 1431 1433 1434 1436 1438 1439 1440 1441 1443 1444 1446 1448 1450 1453 1455 1457 1460 1462 1464 1465 1466 1468 1469 1470 1472 1473 1474 1475 1476 1477 1478 1478 1479 1479 1480 1480 1480 1480 1480 1480 1480 1480 1480 1480 1480 1480 1479 1479 1479 1478 1478 1478 1477 1477 1476 1476 1476 1475 1475 1474 1474 1474 1473 1473 1472
1426 1427 1428 1429 1431 1433 1434 1436 1437 1438 1440 1441 1443 1444 1446 1448 1451 1453 1456 1458 1461 1463 1464 1465 1467 1468 1469 1470 1472 1473 1474 1475 1476 1477 1478 1478 1478 1479 1479 1479 1479 1480 1480 1479 1479 1479 1479 1479 1479 1479 1478 1478 1478 1477 1477 1476 1476 1475 1475 1475 1474 1474 1474 1473 1473 1473 1472 1471 1471
1425 1427 1428 1430 1432 1433 1435 1436 1437 1438 1440 1441 1443 1444 1447 1449 1452 1455 1457 1459 1461 1463 1464 1466 1467 1468 1469 1470 1472 1473 1474 1475 1476 1476 1477 1478 1478 1478 1478 1479 1479 1479 1479 1479 1479 1478 1478 1478 1478 1478 1477 1477 1477 1476 1476 1475 1475 1474 1474 1474 1473 1473 1473 1472 1472 1471 1471 1470 1469
1424 1426 1428 1430 1432 1433 1435 1436 1438 1439 1440 1442 1443 1445 1448 1450 1453 1455 1458 1460 1461 1463 1464 1465 1467 1468 1469 1470 1471 1473 1473 1474 1475 1476 1477 1477 1477 1478 1478 1478 1478 1478 1478 1478 1478 1478 1478 1477 1477 1476 1476 1476 1476 1475 1475 1474 1474 1473 1473 1473 1472 1472 1471 1471 1470 1470 1469 1468 1468
1424 1426 1428 1430 1432 1434 1435 1437 1438 1440 1442 1443 1445 1447 1449 1451 1453 1456 1458 1459 1461 1463 1464 1465 1466 1468 1468 1470 1471 1472 1473 1474 1475 1475 1476 1476 1477 1477 1477 1477 1477 1477 1477 1477 1477 1477 1476 1476 1476 1475 1475 1475 1474 1474 1473 1473 1473 1472 1472 1471 1471 1470 1470 1469 1469 1468 1468 1467 1466
1424 1426 1428 1430 1432 1433 1435 1436 1438 1441 1443 1445 1447 1448 1450 1452 1454 1456 1458 1459 1461 1462 1463 1465 1466 1467 1468 1469 1471 1472 1473 1473 1474 1475 1475 1476 1476 1476 1476 1477 1477 1476 1476 1476 1476 1475 1475 1475 1474 1474 1474 1473 1473 1473 1472 1472 1471 1471 1470 1470 1469 1469 1468 1467 1467 1466 1466 1465 1464
1425 1427 1428 1430 1432 1433 1434 1436 1438 1441 1443 1446 1448 1450 1451 1453 1454 1456 1458 1459 1461 1462 1463 1465 1466 1467 1468 1469 1470 1471 1472 1473 1474 1474 1475 1475 1475 1475 1475 1476 1476 1476 1475 1475 1474 1474 1474 1473 1473 1473 1473 1472 1472 1471 1471 1470 1470 1469 1469 1468 1468 1467 1466 1466 1465 1464 1464 1463 1463
1425 1427 1428 1430 1431 1432 1434 1436 1438 1441 1444 1447 1449 1451 1452 1453 1455 1457 1458 1460 1461 1462 1463 1465 1466 1467 1468 1469 1470 1471 1472 1473 1473 1473 1474 1474 1474 1474 1474 1475 1475 1474 1474 1473 1473 1473 1473 1473 1472 1472 1471 1471 1470 1470 1469 1469 1468 1468 1468 1467 1466 1465 1465 1464 1463 1463 1463 1462 1462
1425 1427 1428 1429 1431 1433 1434 1437 1439 1441 1444 1447 1449 1451 1453 1454 1456 1458 1459 1460 1462 1463 1464 1465 1466 1467 1468 1469 1470 1471 1471 1472 1473 1473 1473 1473 1473 1473 1473 1473 1473 1473 1473 1473 1472 1472 1472 1472 1471 1470 1470 1469 1469 1468 1468 1468 1467 1466 1466 1465 1465 1464 1463 1462 1462 1461 1461 1461 1460
1425 1427 1428 1429 1431 1433 1435 1437 1439 1442 1444 1447 1449 1452 1453 1455 1457 1458 1460 1461 1462 1463 1464 1465 1466 1467 1468 1468 1469 1470 1471 1471 1472 1472 1472 1473 1473 1472 1472 1472 1472 1472 1472 1472 1472 1471 1471 1470 1470 1469 1469 1468 1468 1467 1467 1466 1465 1465 1464 1463 1463 1462 1461 1461 1460 1460 1460 1459 1459
1426 1427 1428 1430 1432 1434 1436 1438 1441 1443 1446 1448 1450 1453 1454 1456 1457 1459 1460 1461 1462 1463 1464 1465 1466 1467 1467 1468 1469 1469 1470 1470 1471 1471 1472 1472 1472 1471 1471 1470 1470 1471 1471 1471 1471 1470 1470 1469 1468 1468 1468 1467 1466 1466 1465 1465 1464 1463 1463 1462 1461 1460 1460 1459 1459 1459 1458 1458 1457
1426 1427 1429 1431 1433 1435 1438 1440 1443 1445 1447 1449 1451 1453 1454 1456 1457 1458 1460 1461 1462 1463 1464 1465 1466 1466 1467 1468 1468 1469 1469 1470 1470 1470 1471 1471 1470 1470 1469 1469 1470 1470 1471 1470 1470 1469 1468 1468 1467 1467 1466 1466 1465 1464 1464 1463 1463 1462 1461 1460 1460 1459 1458 1458 1458 1458 1457 1457 1456
1427 1428 1430 1432 1435 1437 1440 1442 1444 1446 1448 1449 1451 1453 1454 1456 1457 1458 1459 1461 1462 1463 1464 1464 1465 1466 1466 1467 1468 1468 1469 1469 1469 1469 1469 1469 1469 1469 1469 1469 1469 1469 1469 1469 1468 1468 1467 1467 1466 1466 1465 1464 1464 1463 1463 1462 1461 1460 1459 1459 1458 1458 1457 1457 1457 1456 1456 1455 1455
1428 1429 1432 1434 1437 1439 1441 1443 1445 1446 1448 1450 1452 1453 1455 1456 1457 1458 1459 1461 1462 1463 1463 1464 1465 1465 1466 1467 1467 1468 1468 1468 1468 1468 1468 1468 1468 1469 1469 1468 1468 1468 1468 1468 1468 1467 1466 1465 1465 1464 1463 1463 1462 1462 1461 1460 1459 1458 1458 1457 1457 1456 1456 1456 1455 1455 1455 1454 1453
1428 1431 1433 1436 1438 1440 1441 1443 1445 1447 1449 1451 1453 1454 1456 1457 1458 1458 1459 1460 1461 1462 1463 1463 1464 1465 1466 1466 1467 1467 1467 1467 1467 1467 1468 1468 1468 1468 1468 1468 1467 1467 1467 1467 1466 1466 1465 1464 1463 1463 1462 1462 1461 1460 1459 1458 1458 1457 1456 1456 1455 1455 1455 1454 1454 1454 1453 1453 1453
1430 1432 1434 1437 1438 1440 1442 1444 1446 1448 1450 1452 1453 1454 1456 1457 1458 1458 1459 1460 1461 1462 1463 1463 1464 1464 1465 1465 1465 1466 1466 1466 1466 1467 1467 1468 1468 1468 1468 1467 1466 1466 1466 1465 1465 1464 1464 1463 1462 1462 1461 1460 1459 1458 1458 1457 1456 1456 1455 1454 1454 1453 1453 1453 1453 1453 1452 1452 1451
1432 1434 1436 1438 1439 1441 1443 1445 1448 1449 1451 1453 1453 1454 1455 1456 1457 1458 1459 1460 1461 1462 1462 1463 1463 1464 1464 1464 1464 1465 1465 1465 1466 1467 1467 1468 1468 1468 1467 1466 1466 1465 1464 1464 1464 1463 1463 1462 1461 1460 1459 1458 1458 1457 1456 1455 1455 1454 1453 1453 1453 1452 1452 1452 1452 1451 1451 1450 1449
1433 1436 1438 1439 1441 1443 1445 1447 1449 1451 1452 1453 1454 1455 1456 1456 1457 1458 1459 1460 1461 1461 1462 1462 1463 1463 1463 1463 1464 1464 1465 1465 1466 1466 1467 1467 1467 1466 1466 1466 1465 1464 1463 1463 1463 1462 1461 1460 1459 1458 1458 1457 1456 1455 1455 1454 1453 1453 1452 1452 1451 1451 1451 1451 1450 1450 1449 1448 1448
1436 1438 1440 1441 1443 1445 1447 1448 1450 1451 1452 1453 1454 1455 1456 1457 1458 1458 1459 1460 1461 1461 1461 1462 1462 1462 1463 1463 1464 1464 1465 1465 1466 1466 1466 1466 1466 1465 1465 1464 1464 1463 1463 1462 1462 1461 1460 1459 1458 1457 1456 1455 1455 1454 1453 1453 1452 1451 1451 1450 1450 1450 1450 1449 1448 1448 1447 1446 1446
1438 1440 1441 1443 1445 1446 1448 1449 1451 1452 1453 1453 1454 1455 1456 1457 1458 1458 1459 1460 1460 1461 1461 1461 1462 1462 1463 1463 1464 1464 1465 1465 1465 1465 1465 1465 1465 1464 1464 1463 1463 1462 1462 1461 1460 1460 1459 1458 1457 1456 1455 1454 1453 1453 1452 1451 1451 1450 1449 1449 1449 1448 1448 1448 1447 1446 1445 1445 1444
1439 1441 1443 1444 1446 1448 1449 1450 1451 1452 1453 1454 1455 1456 1456 1457 1458 1458 1459 1459 1460 1460 1461 1461 1462 1462 1463 1463 1463 1464 1464 1464 1464 1464 1464 1464 1463 1463 1463 1462 1462 1461 1460 1460 1459 1458 1458 1457 1456 1455 1454 1453 1452 1452 1451 1450 1449 1449 1448 1448 1448 1447 1446 1446 1445 1444 1444 1443 1443
Wind_Speed
38 37 36 36 35 34 33 31 29 27 26 25 26 26 27 29 33 36 39 40 38 35 31 29 29 30 32 34 34 32 29 26 25 24 22 20 18 17 15 14 12 11 9 7 5 3 2 2 4 6 7 9 11 11 11 11 11 11 10 10 10 10 10 11 11 11 12 13 14
37 36 36 35 35 34 33 31 29 27 26 25 25 25 26 29 33 37 39 40 37 34 32 31 32 34 35 35 33 30 27 25 25 24 22 20 18 17 15 13 12 11 9 7 5 3 2 2 4 6 8 9 10 11 11 10 10 10 10 10 10 10 11 11 11 11 12 12 13
37 36 36 36 35 34 33 31 29 28 27 26 25 25 26 29 34 38 39 39 37 35 34 35 36 36 35 33 30 27 26 26 25 24 22 20 18 17 15 13 12 10 9 6 4 2 2 3 4 6 8 10 10 10 10 10 10 10 10 10 11 11 11 11 11 12 12 13 13
36 36 36 36 35 34 32 30 29 27 26 26 25 25 27 30 35 37 38 38 37 37 37 37 37 35 32 30 28 27 27 26 25 23 21 20 18 17 15 13 12 10 8 6 4 2 2 3 5 6 8 9 10 10 10 10 10 10 10 10 11 11 11 11 12 12 13 13 14
36 36 36 35 34 32 30 29 28 27 26 25 24 25 28 32 35 37 38 38 38 38 38 37 33 30 28 27 27 28 28 27 25 23 21 20 18 17 15 13 11 10 8 6 4 3 2 3 5 7 8 10 10 10 10 10 10 10 10 11 11 11 11 12 12 13 13 14 14
36 36 36 34 33 31 29 28 26 25 24 23 23 26 29 33 36 37 38 38 39 39 37 34 29 27 27 28 29 29 28 26 24 23 21 20 18 17 15 13 11 9 7 6 4 3 3 4 6 7 9 10 10 10 10 10 10 11 11 11 12 12 12 12 12 13 14 14 15
37 36 35 33 31 29 28 27 25 23 22 22 23 26 29 33 35 37 38 38 39 38 35 30 28 28 29 31 32 30 28 26 25 23 21 19 18 16 14 12 11 9 7 5 4 3 3 4 6 7 9 9 9 9 9 10 10 11 12 12 13 13 13 13 13 14 14 15 15
36 35 34 32 30 29 27 26 24 22 21 22 23 26 29 32 35 37 38 38 38 36 32 28 29 30 32 34 33 31 28 27 25 23 21 19 18 16 14 12 10 8 7 5 3 3 3 5 6 7 8 9 9 9 9 9 10 11 11 12 13 14 14 14 14 14 15 16 16
35 33 32 30 29 28 27 25 23 22 22 23 24 27 29 32 35 37 39 39 36 33 29 28 31 33 34 34 32 30 28 27 24 22 21 19 17 15 13 12 10 8 6 5 3 3 4 5 6 8 8 9 8 8 9 9 10 11 11 12 13 13 14 14 15 15 16 17 17
34 32 31 29 28 27 25 23 21 21 22 24 25 27 30 33 35 37 38 37 34 30 28 30 33 35 34 33 31 30 28 26 24 22 20 19 17 15 13 11 9 8 6 4 3 3 4 6 7 8 8 9 8 9 9 10 10 11 11 12 12 13 13 14 15 16 17 17 18
33 32 30 29 28 26 24 22 22 22 23 25 27 29 31 34 35 36 36 34 31 29 29 31 34 35 34 32 31 29 27 25 23 21 20 18 16 14 12 10 9 7 5 4 3 3 5 6 7 8 8 9 9 9 10 10 11 11 12 12 13 13 14 15 16 16 17 18 18
32 30 29 28 26 25 23 23 23 24 26 27 28 30 32 34 35 35 34 32 29 28 29 32 34 34 33 32 31 28 26 24 22 21 19 17 16 14 12 10 8 6 5 4 3 4 5 6 7 8 8 9 9 10 10 11 12 12 13 13 13 14 14 15 16 17 17 18 18
30 29 27 26 24 23 23 24 25 26 28 29 30 32 33 34 34 33 32 31 29 29 30 32 33 33 32 31 29 27 25 23 22 20 19 17 15 13 11 9 7 6 4 3 4 4 6 7 7 8 8 9 10 10 11 12 12 13 13 14 14 14 15 15 16 16 17 18 18
28 26 25 24 23 23 24 25 26 28 29 30 31 32 33 33 32 31 30 29 28 29 31 33 33 33 32 30 28 26 24 23 21 20 18 16 14 12 10 8 6 5 4 4 4 5 6 7 7 8 9 9 10 11 12 12 13 13 13 14 14 15 15 15 16 16 17 17 18
26 24 23 22 23 24 25 27 28 29 30 31 32 32 32 31 31 30 29 28 28 30 32 34 34 33 31 28 26 25 23 22 20 19 17 15 13 11 9 7 6 5 4 4 4 5 6 7 7 8 8 9 10 11 12 12 13 13 13 14 14 15 15 16 16 16 17 18 18
24 23 22 23 24 25 27 28 29 30 31 31 31 31 31 30 30 30 29 28 29 31 33 34 34 32 29 27 25 24 22 21 19 17 15 13 11 10 8 7 5 4 4 4 5 6 6 7 7 8 8 9 10 11 12 12 13 13 14 14 15 15 16 16 16 17 17 18 19
23 23 23 24 25 27 28 29 29 30 30 31 31 31 31 31 30 29 28 29 31 33 34 34 33 31 28 26 24 23 21 20 18 16 14 12 10 9 7 6 5 4 4 4 5 6 6 7 8 8 9 9 10 11 12 12 13 13 14 15 15 15 16 16 17 17 18 19 19
23 24 25 25 26 28 29 29 29 30 30 30 30 31 31 30 30 29 29 30 32 34 34 33 31 29 27 25 23 22 20 18 16 15 13 11 9 8 7 6 5 4 4 5 5 6 7 7 8 9 9 10 11 12 12 13 14 14 15 15 15 16 16 17 17 18 19 19 20
25 26 26 27 27 28 29 29 29 29 30 30 30 31 30 29 29 30 30 31 33 34 33 32 30 27 26 24 23 21 19 17 15 13 11 10 8 7 6 5 5 4 5 5 6 7 7 8 9 10 10 11 12 13 13 14 14 15 15 16 16 16 17 17 18 19 19 20 20
26 27 27 27 28 29 29 29 29 29 30 30 30 30 29 29 29 31 32 32 33 33 32 30 28 26 25 23 21 19 17 15 13 12 10 9 8 6 6 5 4 4 5 6 6 7 8 9 10 10 11 12 13 13 14 15 15 16 16 16 17 17 17 18 18 19 19 20 21
27 27 27 27 28 28 29 29 29 29 29 30 29 28 28 29 30 31 32 33 33 32 30 28 26 25 23 21 19 18 16 14 12 10 9 8 7 6 5 5 4 5 5 6 7 7 8 9 10 11 12 12 13 14 14 15 16 16 16 16 17 17 18 18 18 19 19 20 21
27 27 26 27 28 28 28 29 29 29 29 28 28 28 29 30 31 32 32 32 31 29 27 25 24 22 21 19 17 15 14 12 11 9 8 7 6 6 5 4 4 5 5 6 7 8 9 10 11 12 12 13 13 14 15 15 16 16 16 17 17 17 18 18 18 19 19 20 21
28 27 27 27 27 28 28 28 29 28 28 28 28 29 30 31 31 32 32 31 29 27 25 23 22 20 19 17 15 13 12 11 9 8 7 6 6 5 5 4 5 5 6 7 8 9 10 11 12 12 13 13 14 14 15 15 16 16 17 17 17 18 18 18 18 18 19 19 20
28 28 28 28 28 28 28 28 28 27 27 28 30 30 31 31 31 31 31 29 27 26 24 22 20 19 17 15 13 12 10 9 8 8 7 6 5 5 5 5 5 6 7 8 9 10 11 11 12 12 13 14 14 15 15 16 16 16 17 17 18 18 19 19 18 18 18 18 19
28 28 28 28 27 27 27 27 27 27 28 29 30 31 31 32 31 31 30 28 26 24 23 21 19 18 16 14 12 11 9 8 7 7 6 6 5 5 5 5 5 6 8 9 10 10 11 12 12 13 14 14 15 15 16 16 16 17 17 18 18 19 20 20 19 18 18 17 18
28 28 27 27 27 27 27 27 27 28 28 29 30 30 31 31 31 30 29 27 25 23 21 20 18 16 15 13 11 10 9 8 7 6 5 5 5 5 5 5 6 7 9 10 10 11 12 12 13 14 14 15 16 16 16 17 17 17 18 18 19 20 20 20 19 18 17 17 17
27 27 28 27 27 27 27 28 29 29 30 30 30 30 31 30 30 29 27 26 24 22 20 18 16 15 13 11 10 9 8 7 6 5 5 5 5 6 6 7 7 8 9 10 11 12 12 13 14 15 15 16 17 17 17 18 18 18 18 19 20 20 20 20 19 17 16 16 17
28 28 28 28 28 28 29 29 30 31 31 31 30 30 30 29 28 27 25 23 22 20 18 16 14 13 11 10 9 8 7 6 6 5 5 5 6 7 8 8 8 9 10 11 12 12 13 13 14 15 16 17 17 18 18 18 19 19 19 20 20 21 20 19 17 16 15 16 18
29 28 28 28 29 30 31 32 32 32 32 31 31 30 29 27 26 24 23 21 19 17 16 14 13 11 10 9 8 7 6 6 5 5 5 6 7 8 9 9 10 10 11 11 12 12 13 14 15 16 17 18 18 18 19 19 19 20 20 21 21 21 19 18 16 15 15 16 18
29 28 29 30 31 32 33 33 33 32 32 31 30 28 27 25 23 22 20 18 17 15 13 12 11 10 9 8 7 7 6 6 5 5 5 6 7 8 10 11 11 11 10 11 12 13 14 15 16 17 17 18 18 19 19 19 20 20 21 21 21 20 18 16 14 14 15 17 19
28 29 30 31 32 33 33 33 32 31 30 30 28 27 25 23 21 20 18 16 15 14 12 11 10 9 9 8 7 6 6 6 5 6 6 7 8 9 11 12 11 10 10 11 12 14 15 16 17 17 18 18 19 19 19 20 20 21 22 22 21 19 17 14 13 13 15 17 19
29 29 30 31 32 32 32 31 31 30 29 28 27 25 24 22 20 18 17 15 14 13 12 11 10 9 8 8 7 6 6 5 6 6 7 8 9 10 11 11 11 11 11 12 13 15 16 16 17 18 18 19 19 19 20 20 21 22 22 21 20 18 15 13 12 13 15 17 19
29 29 30 31 31 31 31 31 30 30 29 27 26 24 22 20 19 17 16 14 13 12 11 10 10 9 8 7 6 5 5 6 7 8 9 9 9 9 10 11 11 12 12 13 14 15 16 17 18 18 19 19 20 20 20 21 21 22 21 20 18 16 13 11 12 13 15 17 18
29 30 30 30 31 31 31 31 30 29 27 26 24 22 20 19 18 17 15 14 13 11 10 10 9 8 7 6 5 5 6 7 8 8 8 8 8 8 9 11 12 13 14 14 15 16 17 18 18 19 19 20 20 21 21 21 22 21 21 19 17 14 12 11 12 13 15 16 17
30 30 31 32 32 32 31 30 29 27 25 23 22 21 19 18 17 15 14 13 12 11 10 9 8 6 6 5 6 6 7 8 8 8 7 7 7 8 9 11 13 14 15 15 16 17 18 18 19 19 20 20 21 21 21 21 21 21 20 18 15 13 11 10 11 12 14 15 16
31 32 32 33 32 31 30 28 26 24 23 22 21 20 19 17 15 14 13 11 10 9 8 7 6 5 5 6 7 7 8 8 7 7 6 6 7 8 10 12 14 15 16 17 17 17 18 19 19 20 20 21 21 21 21 21 21 20 19 16 14 11 10 10 11 12 13 14 15
32 32 32 32 30 28 26 25 23 23 22 21 20 19 17 16 15 13 11 10 8 7 6 5 5 5 5 6 7 7 7 7 6 6 6 6 8 9 11 12 14 15 17 17 18 18 18 19 20 20 21 21 21 21 21 20 20 19 17 15 12 10 9 9 11 12 13 14 15
31 30 29 28 26 25 23 22 22 22 21 20 19 17 16 14 13 11 9 7 6 5 4 4 4 5 5 6 6 6 5 5 5 6 7 8 9 10 12 13 14 15 16 17 18 18 19 19 20 21 21 21 21 21 20 19 18 17 16 13 11 9 8 10 12 13 14 16 17
28 26 24 23 23 22 22 22 22 21 20 18 17 16 14 12 11 9 7 6 4 4 4 4 4 4 4 5 4 4 4 4 5 6 8 9 10 11 12 13 15 15 16 17 17 18 18 19 20 20 21 21 20 20 19 18 17 16 14 12 10 9 9 11 13 15 17 18 19
24 22 21 21 21 22 22 21 20 19 17 16 15 13 12 10 8 7 5 4 4 3 3 3 3 4 4 4 4 4 4 5 6 7 9 10 11 12 13 14 15 16 16 16 17 18 18 19 20 20 20 20 19 18 18 17 16 15 13 11 11 11 12 14 16 17 19 19 19
22 21 21 21 22 22 21 20 18 16 15 13 12 11 9 8 7 6 5 4 3 3 3 3 3 3 3 3 4 5 6 7 8 9 10 12 13 14 15 15 16 16 16 16 17 17 18 19 19 19 19 19 18 17 17 16 15 14 12 11 12 13 15 16 18 18 18 17 16
Wind_Direction
213 216 218 219 220 220 219 217 217 217 218 219 218 218 216 212 208 207 206 204 202 201 202 204 205 199 192 190 191 195 198 199 198 198 200 202 205 207 209 210 211 214 218 222 226 234 267 318 331 333 333 334 337 338 338 339 338 335 330 325 320 316 312 308 307 307 309 311 313
212 216 218 219 219 218 217 215 214 214 216 218 218 218 216 212 208 205 204 202 199 198 197 196 193 189 188 190 195 199 200 198 196 197 199 202 205 208 209 209 211 215 219 222 224 232 272 317 328 331 333 333 336 337 337 335 334 331 326 321 317 314 310 307 306 307 308 310 311
212 215 217 218 218 217 214 213 213 213 213 214 215 215 214 211 207 205 202 200 197 194 191 189 188 188 190 194 198 200 198 196 195 197 199 202 206 208 209 209 212 215 218 221 222 231 272 315 325 329 330 332 335 335 334 331 330 326 322 317 315 313 310 307 306 307 307 308 309
212 215 217 217 217 216 214 213 213 213 212 212 212 212 211 208 205 203 201 199 196 192 190 188 188 191 195 198 198 195 193 194 195 198 201 204 206 208 209 210 212 214 217 218 220 232 272 310 321 325 328 330 332 332 331 329 327 324 319 316 314 312 309 306 306 307 307 308 309
212 215 216 216 215 215 215 215 214 213 212 212 211 210 208 205 203 201 200 198 194 192 191 191 193 196 199 198 193 190 191 193 196 199 202 205 207 207 208 210 211 214 215 216 219 234 276 307 319 323 326 328 330 330 329 328 326 322 318 315 312 310 307 306 306 308 309 310 311
211 213 214 213 212 212 213 214 214 213 212 212 211 209 206 203 201 200 198 196 194 193 193 195 199 201 198 192 189 189 191 194 197 200 203 205 206 207 208 209 211 212 213 214 220 241 281 307 319 323 325 328 329 330 329 328 325 320 316 313 310 309 307 306 308 310 312 312 313
210 210 210 209 208 209 210 211 211 211 212 212 210 208 205 203 201 199 197 195 194 193 195 199 202 199 193 187 188 190 193 195 198 201 203 205 206 206 207 208 210 210 211 212 221 247 286 309 320 323 325 327 328 328 326 324 321 317 314 311 311 310 310 310 311 313 314 314 314
207 207 206 205 206 207 208 209 208 209 210 209 209 207 206 203 200 198 196 195 194 195 198 202 199 194 188 186 188 191 194 197 199 200 203 204 206 206 207 208 208 208 208 211 223 254 291 310 319 322 323 324 324 323 321 319 316 314 311 310 311 312 312 313 314 315 315 315 315
202 202 202 202 204 206 207 208 208 208 207 207 207 206 204 202 200 198 196 195 196 199 204 203 195 189 186 186 188 191 195 197 199 200 202 204 205 205 206 206 206 206 207 211 226 261 295 310 317 319 319 321 321 319 317 316 314 312 310 309 309 310 312 314 315 316 316 316 317
198 197 198 199 202 205 206 206 207 208 208 206 205 203 201 200 199 199 198 199 200 204 206 200 192 187 184 185 188 191 194 197 199 201 203 204 204 204 204 204 204 204 207 213 233 270 297 309 315 317 317 318 318 317 316 315 313 311 309 308 308 309 311 314 315 316 317 318 318
196 195 196 199 202 203 203 202 204 205 205 204 202 200 198 198 199 200 201 202 204 205 202 195 188 184 183 184 187 190 193 196 199 201 202 203 203 203 202 202 202 203 208 219 245 280 299 309 314 315 316 316 316 317 316 315 313 312 311 310 310 312 314 315 316 317 318 319 318
194 195 197 200 201 200 199 199 199 200 200 199 198 197 197 198 200 201 203 204 204 201 196 189 185 182 182 184 186 189 192 195 198 200 202 202 202 201 201 200 201 204 211 228 259 287 300 307 312 314 315 315 315 316 316 316 316 316 315 315 316 317 318 318 318 318 318 318 317
194 196 198 200 199 197 196 196 196 195 195 195 195 196 197 198 200 202 203 203 201 195 188 184 182 181 182 184 186 189 192 196 198 200 201 201 200 199 199 199 200 204 215 239 269 290 301 307 311 314 316 315 316 317 318 318 318 318 319 319 319 320 320 319 319 318 317 316 314
195 197 198 198 196 194 194 193 192 192 192 192 194 196 197 197 199 200 201 200 196 189 182 179 180 181 183 185 187 190 193 196 198 199 199 199 198 198 198 198 200 207 223 250 275 292 301 306 310 313 315 317 317 318 319 319 319 319 319 319 319 319 318 318 317 316 315 314 313
195 197 198 195 193 192 191 190 189 190 191 192 195 196 196 196 196 198 198 195 189 183 179 177 178 181 183 186 188 191 194 196 197 198 197 197 196 196 196 198 203 213 233 259 280 293 300 305 309 312 314 316 317 318 318 318 318 317 317 317 317 317 317 317 316 316 315 313 313
194 195 194 192 190 189 188 188 188 189 191 193 195 196 195 194 195 195 193 188 183 179 177 178 179 180 183 185 188 191 194 195 196 196 196 195 195 195 196 200 207 221 241 265 284 294 300 305 307 310 313 314 315 316 316 316 315 315 315 316 316 317 317 317 317 316 315 314 313
192 191 189 187 186 186 186 187 188 189 191 193 194 194 194 193 193 191 188 183 179 177 178 179 180 181 182 184 187 190 193 194 195 194 194 194 194 195 197 202 212 229 251 271 285 294 300 304 307 310 312 313 314 314 314 314 315 315 315 316 317 318 318 318 318 317 315 314 313
188 186 184 183 183 184 186 187 188 190 191 192 193 194 194 194 191 186 182 179 178 178 179 180 180 182 183 184 187 189 192 193 193 193 192 192 193 195 200 207 220 240 261 277 288 295 300 304 307 310 313 314 314 315 315 315 316 316 317 318 318 319 319 318 317 316 315 313 312
183 181 179 179 181 183 185 187 188 189 190 191 192 193 193 191 186 181 177 176 178 180 180 180 180 181 183 185 187 189 190 191 191 191 190 191 193 197 204 214 231 250 269 283 293 299 304 307 310 313 315 316 317 317 317 318 319 319 320 320 320 320 319 318 316 314 313 311 310
178 176 176 178 180 182 184 185 186 187 188 190 191 191 189 186 180 176 174 175 178 180 181 180 180 181 184 186 187 188 188 189 189 189 190 191 194 200 208 222 240 261 278 289 297 303 307 310 312 315 317 318 319 320 320 321 322 322 322 322 321 320 318 316 314 312 309 308 306
174 173 175 177 179 181 182 183 185 186 187 188 189 187 183 179 175 173 173 175 178 179 180 180 181 182 184 186 187 187 186 187 187 187 189 192 197 204 215 231 252 270 283 293 300 304 308 311 314 316 318 320 321 321 322 322 323 323 322 321 320 318 315 313 310 308 305 303 303
170 171 174 176 178 180 181 182 184 185 186 185 183 179 175 173 172 172 173 175 176 177 177 179 181 183 184 186 186 185 185 185 185 187 190 195 202 212 226 244 262 277 287 294 301 306 310 313 316 318 321 322 322 322 322 322 322 322 320 319 317 315 313 310 307 304 301 300 299
168 170 172 174 176 178 179 181 183 183 181 178 175 172 171 171 171 172 173 174 174 175 175 177 179 181 182 183 183 183 183 184 186 189 194 201 210 222 237 254 270 281 289 296 303 309 313 316 319 321 323 323 323 322 322 322 321 319 317 316 314 313 312 310 306 303 300 299 299
169 170 172 173 175 176 178 180 180 179 176 172 170 169 169 170 171 171 172 172 173 174 175 176 178 179 179 179 180 181 183 185 188 193 199 208 218 231 247 265 277 285 293 301 308 313 317 320 322 323 323 322 322 321 321 320 319 317 315 314 313 313 312 311 309 306 303 301 300
171 172 173 174 175 177 178 178 177 175 172 169 168 167 168 169 169 170 170 171 172 173 175 176 176 177 177 177 178 180 183 186 191 197 205 214 227 241 257 271 283 292 300 307 313 318 321 323 323 322 322 321 321 321 320 319 318 317 315 314 314 314 314 314 312 310 307 305 303
174 175 175 176 177 177 177 177 175 172 169 167 166 166 167 167 168 169 170 170 171 173 174 175 175 176 176 177 179 181 184 188 195 203 213 224 237 251 264 277 288 298 306 313 319 323 324 324 323 322 321 321 321 321 320 319 318 317 316 316 316 316 316 315 314 313 310 307 303
176 176 176 177 177 176 176 175 172 168 165 165 165 166 166 167 168 169 170 170 171 172 172 173 174 174 176 178 180 182 185 191 198 210 222 237 250 263 275 286 297 306 314 320 324 326 326 324 323 322 322 322 322 321 321 320 319 318 318 318 318 318 317 317 316 313 309 303 299
176 176 176 176 175 174 173 171 167 164 163 163 165 166 167 168 168 169 170 170 170 171 171 171 173 175 176 178 180 183 188 195 204 218 233 250 265 276 286 297 306 315 323 327 328 327 325 323 323 322 322 322 322 322 321 320 319 319 319 319 319 319 319 318 315 311 304 297 293
174 174 175 174 172 171 168 165 162 161 161 163 165 167 168 168 168 169 169 169 170 171 172 172 174 176 177 179 182 187 193 203 213 228 246 262 276 287 295 305 315 325 330 331 329 326 323 323 323 323 322 322 322 322 321 320 320 320 320 320 320 320 319 318 315 308 299 293 292
171 172 172 171 169 166 163 161 160 160 162 164 166 167 168 168 168 168 168 169 170 172 173 175 176 177 179 182 187 192 201 210 225 240 257 273 285 294 303 313 324 332 335 331 326 323 322 322 323 322 322 321 321 321 321 320 320 320 321 321 321 321 320 318 313 305 298 294 293
169 169 168 166 162 160 158 158 158 160 162 164 166 167 168 168 168 169 170 172 173 174 175 176 178 180 183 188 193 200 210 224 239 254 268 281 293 304 313 322 330 334 332 327 323 322 323 323 322 322 322 321 321 321 321 321 320 321 321 321 321 321 320 318 311 303 296 293 293
165 164 161 159 156 155 155 156 158 160 162 164 166 168 169 170 170 171 173 175 176 177 177 179 182 185 189 194 200 210 224 239 255 268 281 293 307 319 325 327 329 328 327 325 324 324 324 323 322 322 321 321 321 320 321 320 320 321 321 321 321 321 319 314 305 297 293 291 291
158 156 155 153 152 153 154 157 159 162 164 166 168 171 172 173 173 173 174 175 177 178 179 181 185 188 192 198 207 223 241 257 271 284 296 311 325 332 331 325 322 323 325 326 326 325 324 323 322 321 321 320 320 320 320 320 320 321 321 321 321 320 315 306 297 292 291 291 290
152 151 151 152 153 155 157 160 163 165 168 169 171 172 173 173 173 172 173 174 176 178 180 183 186 190 197 208 224 243 262 276 287 300 314 328 336 334 325 318 319 322 325 326 326 325 324 323 322 321 320 320 320 320 320 320 320 321 321 321 320 317 310 299 292 290 291 291 291
150 151 153 155 157 159 161 163 166 168 169 169 168 168 169 170 171 172 173 175 176 178 180 183 189 197 212 231 249 265 279 292 304 317 330 336 334 325 319 319 320 323 325 326 325 324 323 322 321 320 320 320 320 320 321 320 321 321 321 321 319 315 307 297 292 291 291 291 290
152 154 157 158 160 161 163 165 166 166 166 165 164 165 166 167 169 170 172 173 175 178 182 188 198 216 236 256 272 284 295 306 318 329 334 330 323 319 321 322 322 323 324 325 325 324 323 322 321 320 320 320 321 321 321 321 321 321 321 320 319 314 306 298 294 292 291 288 286
155 157 159 159 160 161 162 162 162 161 161 161 162 163 164 165 166 167 168 171 175 182 191 205 224 246 264 279 292 303 312 319 327 329 325 318 317 320 322 323 323 323 323 324 324 323 323 322 321 321 321 321 322 322 322 322 322 322 321 320 317 313 305 298 293 289 286 283 279
157 159 159 159 159 158 158 157 158 158 159 160 161 162 163 164 163 164 166 171 181 194 213 235 255 271 283 295 305 315 323 326 326 320 316 316 319 321 323 323 322 322 322 323 323 323 323 322 322 322 322 322 323 323 323 323 322 322 320 319 315 308 299 293 289 284 281 279 277
157 158 158 157 155 154 154 155 156 158 159 159 159 159 160 162 163 164 169 179 195 216 238 260 273 284 292 300 309 316 317 312 309 310 313 317 320 321 322 322 321 321 321 322 323 324 324 324 324 324 324 324 324 324 324 323 323 321 320 317 312 300 289 284 282 280 279 280 281
154 155 154 153 152 152 153 154 155 156 157 157 157 158 160 163 166 170 177 188 203 223 246 264 274 281 288 296 302 303 299 297 301 308 313 317 319 321 321 321 321 321 322 323 325 326 327 327 326 326 325 324 324 324 324 324 323 321 318 314 306 296 287 282 281 282 283 287 290
150 150 150 151 152 152 153 153 153 154 155 156 157 159 162 166 170 175 180 185 196 214 238 257 269 278 288 298 302 304 304 306 310 315 318 320 320 321 321 321 322 322 324 325 327 329 329 329 328 327 326 325 325 326 326 325 323 320 315 308 301 296 291 289 289 291 295 300 305